www.pogodaiklimat.ru

Погода и климат >> Архив погоды >> Россия >> Свердловская область >> Екатеринбург


АРХИВ ПОГОДЫ в Екатеринбурге

Время (UTC), дата Ветер
(напр.,м/с)
 
Видим.   Явления Облачность Т
(С)
Тd
(С)
f
(%)
Тe
(С)
Тes
(С)
Комфортность P
(гПа)
Po
(гПа)
Тmin
(С)
Tmax
(С)
R
(мм)
R24
(мм)
S
(см)
12 11.09 З 3 20 км 9/9 1000 м
[Sc]
+16.0 +8.3 60 +16 +16 тепло 1030.6 997.2
15 11.09 З 1 10 км 9/9 1000 м
[Sc]
+14.9 +8.6 66 +15 +15 тепло 1030.3 996.8 +16.6
18 11.09 З 2 10 км ясно +12.7 +8.6 76 +12 +12 тепло 1029.9 996.1
21 11.09 З 1 10 км ясно +10.8 +7.5 80 +11 +11 тепло 1029.3 995.3
00 12.09 З 3 10 км ясно +10.5 +7.0 79 +9 +9 по сезону 1028.3 994.3
03 12.09 З 1 20 км 3/0
[Cc]
+11.3 +7.3 76 +11 +12 тепло 1027.3 993.5 +9.9
06 12.09 З 4 20 км 8/0
[Ac trans Cc]
+16.3 +9.2 63 +16 +18 тепло 1025.7 992.5
09 12.09 СЗ 4
{11}
50 км 9/6 1000 м
[Sc Cc]
+19.8 +9.7 52 +21 +23 комфорт 1024.3 991.6
12 12.09 З 2
{12}
50 км 9/8 600 м
[Sc diur, vesp Ci fib]
+19.4 +10.7 57 +21 +21 комфорт 1023.8 991.0
15 12.09 З 3 10 км 8/4 600 м
[Sc diur, vesp Ci fib]
+17.4 +11.0 66 +17 +17 тепло 1024.0 991.0 +20.5
18 12.09 СЗ 3 10 км 10/0
[Cs]
+15.5 +10.8 74 +15 +15 тепло 1024.2 991.0
21 12.09 З 2 10 км 10/0
[Cs]
+13.8 +9.7 76 +13 +13 тепло 1023.7 990.3
00 13.09 З 2 10 км 10/0
[Cs]
+12.4 +9.1 80 +12 +12 тепло 1023.2 989.7
03 13.09 З 3 20 км 10/0
[Cs]
+12.8 +9.0 78 +11 +12 тепло 1022.5 989.0 +12.1
06 13.09 З 4 20 км 9/0
[Cs]
+18.3 +10.4 60 +18 +22 тепло 1021.0 988.2
09 13.09 З 4 10 км 9/0
[Cs]
+21.8 +10.4 48 +24 +27 комфорт 1019.8 987.4
12 13.09 З 4
{10}
10 км 6/6 600 м
[Cb calv]
+19.6 +10.3 55 +21 +21 комфорт 1019.0 986.4
15 13.09 ЮЗ 3 10 км 8/0
[Cs]
+16.4 +8.9 61 +16 +16 тепло 1019.0 986.1 +21.8
18 13.09 З 2 10 км ясно +14.3 +10.3 77 +14 +14 тепло 1019.0 985.8
21 13.09 З 2 10 км ясно +13.9 +9.8 76 +13 +13 тепло 1018.2 984.9
00 14.09 ЮЗ 1 10 км ясно +12.9 +9.5 80 +13 +13 тепло 1017.6 984.3
03 14.09 З 2 10 км 9/8 600 м
[Sc Cs]
+13.6 +9.3 75 +13 +13 тепло 1016.9 983.7 +12.8
06 14.09 З 3 20 км 8/0
[Cc]
+18.8 +9.6 55 +20 +23 тепло 1015.9 983.3
09 14.09 ЮЗ 3 20 км 8/0
[Cc]
+22.8 +7.6 38 +24 +29 комфорт 1014.8 982.6
12 14.09 З 3
{10}
20 км 8/3 600 м
[Cu hum Cs]
+22.4 +7.9 39 +23 +24 комфорт 1014.0 981.8
15 14.09 Ю 1
{12}
10 км в посл. час ливневой дождь 8/4 600 м
[Cb cap Cc]
+17.3 +8.2 55 +18 +18 тепло 1014.7 981.9 +23.6 0.3
18 14.09 Ю 1 10 км {ливн. осадки} 8/8 1000 м
[Sc]
+15.8 +8.7 63 +17 +17 тепло 1014.0 981.2
21 14.09 Ю 2 10 км ясно +14.2 +7.9 66 +14 +14 тепло 1013.4 980.4
00 15.09 Ю 1 10 км ясно +12.8 +6.7 66 +13 +13 тепло 1012.6 979.4
03 15.09 ЮВ 1 20 км 3/1 600 м
[Sc Ci fib]
+12.7 +6.5 66 +13 +14 тепло 1011.6 978.4 +12.0
06 15.09 ЮЗ 2 20 км 3/1 600 м
[Sc Ci fib]
+19.5 +7.1 45 +21 +26 комфорт 1009.8 977.4
09 15.09 ЮЗ 5-11
{11}
20 км 6/6 600 м
[Cb calv]
+22.9 +3.8 29 +23 +24 комфорт 1008.1 976.2
12 15.09 ЮЗ 4
{12}
20 км 8/8 600 м
[Cb calv Ci fib]
+22.0 +3.7 30 +22 +22 комфорт 1007.1 975.1
15 15.09 З 3
{12}
10 км 8/3 600 м
[Sc Ci fib]
+17.9 +4.6 41 +18 +18 тепло 1007.8 975.3 +23.9
18 15.09 Ю 1
{10}
10 км в посл. час ливневой дождь 9/8 600 м
[Cb calv Ci fib]
+13.8 +8.7 71 +14 +14 тепло 1008.5 975.5
21 15.09 ЮЗ 4 10 км 9/6 600 м
[Cb calv Cs]
+13.4 +7.0 65 +12 +12 тепло 1007.3 974.4
00 16.09 З 2 10 км слаб. ливневой дождь 9/9 600 м
[Cb cap]
+10.5 +7.6 82 +9 +9 тепло 1007.6 974.3
03 16.09 З 2 10 км {ливн. осадки} 10/10 600 м
[Cb calv]
+10.1 +6.9 81 +9 +9 по сезону 1006.7 973.4 +10.1 0.1
06 16.09 З 2 10 км в посл. час ливневой дождь 10/10 600 м
[Cb calv]
+10.5 +6.7 77 +9 +9 по сезону 1006.7 973.4 +10.1
09 16.09 ЮЗ 2 20 км 9/9 600 м
[Cb calv]
+13.2 +5.4 59 +13 +13 тепло 1005.2 972.3
12 16.09 З 2 20 км 9/9 600 м
[Cb calv]
+12.7 +2.1 48 +12 +12 по сезону 1004.5 971.5
15 16.09 ЮЗ 2
{10}
10 км в посл. час ливневой дождь 6/6 600 м
[Cb calv]
+9.9 +4.0 67 +9 +9 по сезону 1004.4 971.1 +13.9 0.0
18 16.09 ЮЗ 2 10 км {ливн. осадки} 4/4 600 м
[Sc]
+8.5 +4.0 73 +7 +7 по сезону 1003.5 970.1
21 16.09 Ю 3 10 км слаб. ливневой дождь 10/10 600 м
[Cb cap]
+8.5 +5.3 80 +6 +6 по сезону 1001.1 967.8
00 17.09 Ю 3 10 км слаб. ливневой дождь 10/10 300 м
[Cb cap]
+7.9 +6.0 88 +5 +5 по сезону 999.2 965.9
03 17.09 Ю 2 20 км слаб. ливневой дождь 8/8 600 м
[Cb calv]
+9.1 +6.6 84 +7 +7 по сезону 998.7 965.6 +7.8 2
06 17.09 ЮЗ 3 20 км слаб. ливневой дождь 9/9 600 м
[Cb cap]
+10.8 +7.2 78 +9 +9 по сезону 999.2 966.2
09 17.09 З 4
{10}
20 км {ливн. осадки} 9/9 600 м
[Cb cap]
+11.8 +6.5 70 +10 +10 по сезону 1000.5 967.6
12 17.09 ЮЗ 3
{10}
20 км {ливн. осадки} 8/8 600 м
[Cb cap]
+13.1 +5.9 62 +12 +12 по сезону 1001.4 968.6
15 17.09 Ю 2 10 км 8/0
[Cs]
+11.2 +6.2 71 +10 +10 по сезону 1001.8 968.8 +14.2 0.3
18 17.09 Ю 3 10 км 8/0
[Cc]
+10.3 +5.3 71 +8 +8 по сезону 1001.5 968.4
21 17.09 ЮЗ 3 10 км 10/10 600 м
[Sc]
+10.5 +5.3 70 +9 +9 тепло 1000.8 967.7
00 18.09 ЮЗ 3 10 км {ливн. осадки} 8/8 600 м
[Sc]
+9.5 +7.0 84 +7 +7 по сезону 1000.5 967.4
03 18.09 ЮЗ 2 10 км слаб. ливневой дождь 10/6 600 м
[Cb cap Ci fib]
+9.9 +6.6 80 +8 +9 по сезону 1000.7 967.6 +9.2 0.3
06 18.09 ЮЗ 5 20 км {ливн. осадки} 9/6 600 м
[Cb calv Cs]
+13.9 +6.8 62 +12 +13 тепло 1000.2 967.6

 

Местоположение метеостанции Екатеринбург (Свердловская область, Россия): широта 56.83 долгота 60.63 высота над уровнем моря 281 м.

В архиве по умолчанию представлена погода в Екатеринбурге за последнюю неделю. Архивные данные за месяц целиком и за предыдущие месяцы, начиная с января 2011 года, Вы можете получить, выбрав интересующий диапазон дат из раскрывающегося списка и нажав кнопку "Ввод!".


*Определитесь, кто Вы:
робот инопланетянин человек

Внимание! Время в таблицах - всемирное. Для получения местного времени необходимо прибавить поправку, которая равна 5 ч.

Смотрите также архив погоды в соседних городах и на ближайших метеорологических станциях:

Погода в Екатеринбурге (Бот.сад) (Свердловская область, Россия) (5 км)
Погода в Верхнем Дуброво (Свердловская область, Россия) (29 км)
Погода в Сысерти (Свердловская область, Россия) (38 км)
Погода в Ревде (Свердловская область, Россия) (40 км)
Погода в Мариинске (Свердловская область, Россия) (52 км)
Погода в Невьянске (Свердловская область, Россия) (78 км)
Погода в Верхнем Уфалее (Челябинская область, Россия) (86 км)
Погода в Каменск-Уральском (Свердловская область, Россия) (88 км)
Погода в Бисерти (Свердловская область, Россия) (95 км)
Погода в Артемовском (Свердловская область, Россия) (98 км)

Пояснения к столбцам:

Ветер - указаны скорость ветра в м/с - средняя за 10 мин, порывы в срок и между сроками (в фигурных скобках) и направление, откуда дует ветер: С - северный, СВ - северо-восточный, В - восточный, ЮВ - юго-восточный, Ю - южный, ЮЗ - юго-западный, З - западный, СЗ - северо-западный.
Видимость - горизонтальная дальность видимости в метрах или километрах. При видимости от 1 до 10 км при отсутствии осадков обычно наблюдается дымка, при ухудшении видимости до 1 км и менее - туман. В сухую погоду видимость может ухудшаться дымом, пылью или мглою.
Явления - указаны атмосферные явления, наблюдавшиеся в срок или в последний час перед сроком; фигурными скобками обозначены явления, наблюдавшиеся между сроками (за 1-3 часа до срока); квадратными скобками обозначены град или гололедные отложения с указанием их диаметра в мм.
Облачность - указаны через наклонную черту общая и нижняя облачность в баллах и высота нижней границы облаков в метрах; квадратными скобками обозначены формы облаков: Ci - перистые, Cs - перисто-слоистые, Cc - перисто-кучевые, Ac - высококучевые, As - высокослоистые, Sc - слоисто-кучевые, Ns - слоисто-дождевые, Cu - кучевые, Cb - кучево-дождевые. Подробнее классификацию облаков см. в Атласе облаков (PDF).
T - Температура воздуха - температура, измеренная на высоте 2 м над землей.
Td - Температура точки росы - температура, при понижении до которой содержащийся в воздухе водяной пар достигнет насыщения.
f - Относительная влажность воздуха - влажноcть воздуха, измеренная на высоте 2 м над землей.
Te - Эффективная температура - температура, которую ощущает одетый по сезону человек в тени. Характеристика душности погоды. При расчете учитывается влияние влажности воздуха и скорости ветра на теплоощущения человека.
Tes - Эффективная температура на солнце - температура, которую ощущает человек, с поправкой на солнечный нагрев. Характеристика знойности погоды. Зависит от высоты солнца над горизонтом, облачности и скорости ветра. Ночью, в пасмурную погоду, а также при ветре 12 м/с и более поправка равна нулю.
P - Атмосферное давление - приведенное к уровню моря атмосферное давление.
Po - Атмосферное давление - измеренное на уровне метеостанции атмосферное давление.
Tmin - Минимальная температура - минимум температуры воздуха на высоте 2 м над землей.
Tmax - Максимальная температура - максимум температуры воздуха на высоте 2 м над землей.
R - Количество осадков - Количество выпавших осадков за период времени, мм. При наведении курсора мыши на число - период времени, за который выпало указанное количество осадков.
R24 - Количество осадков - Количество выпавших осадков за 24 часа, мм.
S - Снежный покров - Высота снежного покрова, см. При наведении курсора мыши на число - состояние снежного покрова и степень покрытия местности в баллах.